Location: Sungai Liu
(2.3667°N, 113.8667°E)
Time: 13:45:50
(UTC+00:00)

ARIANE 5 R/B - Pass Details

Date: 20 May 2022
Orbit: 431 x 35407 km, 7.5° (Epoch: 04 July)

Event Time Altitude Azimuth Distance (km) Brightness Sun altitude
Rises 12:09:05 0° 276° (W) 16,025 9.9 -24.3°
Reaches altitude 10° 12:32:11 10° 273° (W) 8,723 8.2 -29.6°
Enters shadow 12:50:10 58° 215° (SW) 1,370 3.1 -33.7°
